CW7849 Lidkaping SE current weather conditions

sailwx.info

Wind from 181 at 5 knots gusting 5

Air temperature 12.2° C
Dewpoint 11.4° C

Last reported at 2019-Jul-22 03:09 UTC.
Time now 2019-Jul-22 03:51 UTC

Location: N 58°24' E 013°17'.
View on Google Maps.

See reports from other nearby stations

  
Tides and Currents Weather Stations Pressure Air Temp Water Temp Dewpoint Dewpoint Depression Visibility Wind Speed Wind Dir Waves Ship Positions
date/time (UTC)wind fromknots sea level pressurealtimeterstation pressurevisibilityair tempwater tempwave heightnotes
2019-Jul-22 03:09 181 5 gusting 5 12.2
2019-Jul-22 03:04 181 5 gusting 6 12.2
2019-Jul-22 02:59 190 4 gusting 6 12.2
2019-Jul-22 02:54 206 5 gusting 6 12.8
2019-Jul-22 02:49 206 5 gusting 6 12.8
2019-Jul-22 02:44 206 5 gusting 6 12.8
2019-Jul-22 02:39 194 4 gusting 6 12.8
2019-Jul-22 02:34 194 4 gusting 6 12.8
2019-Jul-22 02:29 194 4 gusting 6 12.8
2019-Jul-22 02:24 217 2 gusting 6 12.8
2019-Jul-22 02:19 200 5 gusting 6 12.8
2019-Jul-22 02:14 200 5 gusting 6 12.8
2019-Jul-22 02:09 200 5 gusting 6 12.8
2019-Jul-22 02:04 189 5 gusting 6 13.3
2019-Jul-22 01:59 189 5 gusting 6 12.2
2019-Jul-22 01:54 189 5 gusting 8 13.3
2019-Jul-22 01:49 200 5 gusting 7 13.3
2019-Jul-22 01:44 211 4 gusting 7 12.8
2019-Jul-22 01:39 208 4 gusting 6 12.8
2019-Jul-22 01:34 204 4 gusting 6 12.8
2019-Jul-22 01:29 205 4 gusting 6 12.8
2019-Jul-22 01:24 192 5 gusting 6 12.8
2019-Jul-22 01:19 192 5 gusting 6 13.3
2019-Jul-22 01:14 192 5 gusting 8 13.3
2019-Jul-22 01:09 206 5 gusting 5 13.3
2019-Jul-22 01:04 206 5 gusting 5 13.3
2019-Jul-22 00:59 206 5 gusting 8 13.9
2019-Jul-22 00:54 199 5 gusting 8 13.3
2019-Jul-22 00:49 200 5 gusting 7 13.3
2019-Jul-22 00:44 195 5 gusting 7 13.3
2019-Jul-22 00:39 194 5 gusting 7 14.4
2019-Jul-22 00:34 215 4 gusting 6 13.9
2019-Jul-22 00:29 213 5 gusting 6 13.9
2019-Jul-22 00:24 213 5 gusting 6 14.4
2019-Jul-22 00:19 205 4 gusting 8 13.9
2019-Jul-22 00:14 212 5 gusting 6 13.9
2019-Jul-22 00:09 212 5 gusting 6 14.4
2019-Jul-22 00:04 212 5 gusting 6 14.4
2019-Jul-21 23:59 205 5 gusting 7 14.4
2019-Jul-21 23:54 201 5 gusting 7 15.0
2019-Jul-21 23:49 200 5 gusting 6 15.0
2019-Jul-21 23:44 200 5 gusting 6 15.0
2019-Jul-21 23:39 200 5 gusting 6 15.0
2019-Jul-21 23:34 200 5 gusting 6 15.0
2019-Jul-21 23:29 222 5 gusting 5 15.0
2019-Jul-21 23:24 222 5 gusting 5 15.0
2019-Jul-21 23:19 222 5 gusting 6 15.0
2019-Jul-21 23:14 199 5 gusting 8 14.4
2019-Jul-21 23:09 210 4 gusting 6 14.4
2019-Jul-21 23:04 210 4 gusting 6 15.0
2019-Jul-21 22:59 210 4 gusting 6 15.0
2019-Jul-21 22:54 191 4 gusting 6 15.0
2019-Jul-21 22:49 191 5 gusting 6 15.0
2019-Jul-21 22:44 189 4 gusting 6 14.4
2019-Jul-21 22:39 177 4 gusting 4 14.4
2019-Jul-21 22:34 177 4 gusting 4 14.4
2019-Jul-21 22:29 177 4 gusting 5 14.4
2019-Jul-21 22:24 189 4 gusting 6 14.4
2019-Jul-21 22:19 205 4 gusting 6 15.0
2019-Jul-21 22:14 196 4 gusting 6 15.0
2019-Jul-21 22:09 239 4 gusting 6 15.0
2019-Jul-21 22:04 239 4 gusting 6 14.4
2019-Jul-21 21:59 239 4 gusting 6 14.4
2019-Jul-21 21:54 188 4 gusting 8 14.4
2019-Jul-21 21:49 213 4 gusting 4 14.4
2019-Jul-21 21:44 213 4 gusting 4 15.0
2019-Jul-21 21:39 213 4 gusting 4 15.0
2019-Jul-21 21:34 207 3 gusting 6 15.0
2019-Jul-21 21:29 219 5 gusting 6 14.4
2019-Jul-21 21:24 219 5 gusting 6 14.4
2019-Jul-21 21:19 219 5 gusting 8 14.4
2019-Jul-21 21:14 219 5 gusting 8 14.4
2019-Jul-21 21:09 203 6 gusting 6 15.0
2019-Jul-21 21:04 238 6 gusting 6 15.0
2019-Jul-21 20:59 238 6 gusting 6 15.0
2019-Jul-21 20:54 238 6 gusting 11 15.6
2019-Jul-21 20:49 215 6 gusting 13 15.6
2019-Jul-21 20:44 220 4 gusting 6 16.1
2019-Jul-21 20:39 220 4 gusting 6 16.1
2019-Jul-21 20:34 220 4 gusting 6 16.1
2019-Jul-21 20:29 224 0 gusting 6 15.6
2019-Jul-21 20:24 236 15.6
2019-Jul-21 20:19 236 15.6
2019-Jul-21 20:14 231 1 gusting 6 15.6
2019-Jul-21 20:09 238 6 gusting 4 16.1
2019-Jul-21 20:04 238 6 gusting 4 16.1
2019-Jul-21 19:59 238 6 gusting 6 16.1
2019-Jul-21 19:54 234 6 gusting 8 16.1
2019-Jul-21 19:49 257 6 gusting 12 16.1
2019-Jul-21 19:44 255 6 gusting 12 15.6
2019-Jul-21 19:39 235 6 gusting 12 15.6
2019-Jul-21 19:34 234 7 gusting 10 16.1
2019-Jul-21 19:29 239 7 gusting 12 15.6
2019-Jul-21 19:24 242 6 gusting 12 15.6
2019-Jul-21 19:19 235 6 gusting 10 16.1
2019-Jul-21 19:14 235 6 gusting 10 17.2
2019-Jul-21 19:09 235 6 gusting 11 17.2
2019-Jul-21 19:04 241 1 gusting 10 17.2
2019-Jul-21 18:59 265 5 gusting 4 16.7
2019-Jul-21 18:54 265 5 gusting 4 17.2
2019-Jul-21 18:49 265 5 gusting 6 17.8
2019-Jul-21 18:44 243 5 gusting 6 17.8
2019-Jul-21 18:39 246 5 gusting 10 17.8
2019-Jul-21 18:34 250 5 gusting 4 17.2
2019-Jul-21 18:29 250 5 gusting 4 17.8
2019-Jul-21 18:24 250 5 gusting 5 17.8
2019-Jul-21 18:19 231 5 gusting 6 17.8
2019-Jul-21 18:14 233 5 gusting 6 18.3
2019-Jul-21 18:09 237 6 gusting 7 18.3
2019-Jul-21 18:04 192 2 gusting 5 18.3
2019-Jul-21 17:59 192 2 gusting 5 18.3
2019-Jul-21 17:54 192 2 gusting 7 18.3
2019-Jul-21 17:49 177 2 gusting 4 18.3
2019-Jul-21 17:44 181 2 gusting 5 18.3
2019-Jul-21 17:39 160 1 gusting 4 18.3
2019-Jul-21 17:34 188 4 gusting 2 18.3
2019-Jul-21 17:29 188 4 gusting 2 18.3
2019-Jul-21 17:24 188 4 gusting 5 18.3
2019-Jul-21 17:19 191 4 gusting 5 17.8
2019-Jul-21 17:14 200 4 gusting 5 17.8
2019-Jul-21 17:09 199 2 gusting 6 17.8
2019-Jul-21 17:04 204 4 gusting 1 17.2
2019-Jul-21 16:59 204 4 gusting 1 17.2
2019-Jul-21 16:54 204 4 gusting 6 17.8
2019-Jul-21 16:49 208 2 gusting 5 18.3
2019-Jul-21 16:44 216 4 gusting 5 18.3
2019-Jul-21 16:39 216 4 gusting 5 18.3
2019-Jul-21 16:34 211 4 gusting 5 18.3
2019-Jul-21 16:29 125 4 gusting 4 18.9
2019-Jul-21 16:24 125 4 gusting 4 18.9
2019-Jul-21 16:19 125 4 gusting 4 18.9
2019-Jul-21 16:14 159 4 gusting 5 18.9
2019-Jul-21 16:09 168 4 gusting 5 18.3
2019-Jul-21 16:04 184 18.3
2019-Jul-21 15:59 184 18.3
2019-Jul-21 15:54 184 18.3
2019-Jul-21 15:49 227 5 gusting 6 18.3
2019-Jul-21 15:44 227 5 gusting 6 18.3
2019-Jul-21 15:39 227 5 gusting 6 18.3
2019-Jul-21 15:34 227 3 gusting 6 18.3
2019-Jul-21 15:29 182 4 gusting 4 18.3
2019-Jul-21 15:24 182 4 gusting 4 18.3
2019-Jul-21 15:19 182 4 gusting 6 18.3
2019-Jul-21 15:14 183 3 gusting 5 18.3
2019-Jul-21 15:09 193 5 gusting 4 18.3
2019-Jul-21 15:04 193 5 gusting 4 18.3
2019-Jul-21 14:59 193 5 gusting 6 17.2
2019-Jul-21 14:54 173 5 gusting 7 18.3
2019-Jul-21 14:49 188 6 gusting 6 18.9
2019-Jul-21 14:44 255 4 gusting 5 19.4
2019-Jul-21 14:39 255 4 gusting 5 19.4
2019-Jul-21 14:34 255 4 gusting 7 19.4
2019-Jul-21 14:29 252 4 gusting 10 19.4
2019-Jul-21 14:24 247 2 gusting 8 19.4
2019-Jul-21 14:19 236 1 gusting 6 19.4
2019-Jul-21 14:14 265 1 19.4
2019-Jul-21 14:09 265 1 19.4
2019-Jul-21 14:04 265 1 19.4
2019-Jul-21 13:59 265 1 19.4
2019-Jul-21 13:54 265 2 gusting 0 19.4
2019-Jul-21 13:49 262 4 gusting 5 19.4
2019-Jul-21 13:44 271 4 gusting 6 20.0
2019-Jul-21 13:39 201 6 gusting 5 22.2
2019-Jul-21 13:34 201 6 gusting 5 22.2
2019-Jul-21 13:29 201 6 gusting 7 22.2
2019-Jul-21 13:24 177 6 gusting 6 22.2
2019-Jul-21 13:19 177 6 gusting 6 22.2
2019-Jul-21 13:14 177 6 gusting 6 22.2
2019-Jul-21 13:09 179 6 gusting 11 21.7
2019-Jul-21 13:04 224 6 gusting 11 21.1
2019-Jul-21 12:59 214 7 gusting 10 21.7
2019-Jul-21 12:54 217 7 gusting 12 21.7
2019-Jul-21 12:49 211 6 gusting 12 21.7
2019-Jul-21 12:44 176 6 gusting 12 21.7
2019-Jul-21 12:39 204 5 gusting 10 21.1
2019-Jul-21 12:34 206 5 gusting 10 21.1
2019-Jul-21 12:29 208 5 gusting 11 20.6
2019-Jul-21 12:24 209 5 gusting 7 20.6
2019-Jul-21 12:19 184 4 gusting 11 20.6
2019-Jul-21 12:14 136 3 gusting 8 20.0
2019-Jul-21 12:09 173 2 gusting 7 19.4
2019-Jul-21 12:04 119 2 gusting 5 20.6
2019-Jul-21 11:59 119 2 gusting 5 21.1
2019-Jul-21 11:54 119 2 gusting 6 20.6
2019-Jul-21 11:49 115 2 gusting 5 20.6
2019-Jul-21 11:44 037 0 gusting 1 20.0
2019-Jul-21 11:39 037 0 gusting 1 19.4
2019-Jul-21 11:34 037 0 gusting 1 18.9
2019-Jul-21 11:29 060 0 gusting 4 18.3
2019-Jul-21 11:24 268 8 gusting 8 16.1
2019-Jul-21 11:19 263 11 gusting 8 15.6
2019-Jul-21 11:14 263 11 gusting 8 15.6
2019-Jul-21 11:09 257 11 gusting 13 15.0
2019-Jul-21 11:04 256 7 gusting 13 16.1
2019-Jul-21 10:59 257 1 gusting 19 17.2
2019-Jul-21 10:54 287 19.4
2019-Jul-21 10:49 287 19.4
2019-Jul-21 10:44 287 19.4
2019-Jul-21 10:39 287 19.4
2019-Jul-21 10:34 275 1 gusting 4 19.4
2019-Jul-21 10:29 274 1 gusting 4 20.0
2019-Jul-21 10:24 274 1 gusting 4 20.0
2019-Jul-21 10:19 275 1 gusting 6 19.4
2019-Jul-21 10:14 248 2 gusting 6 19.4
2019-Jul-21 10:09 188 4 gusting 5 19.4
2019-Jul-21 10:04 194 4 gusting 7 20.0
2019-Jul-21 09:59 189 4 gusting 6 20.6
2019-Jul-21 09:54 164 4 gusting 6 21.1
2019-Jul-21 09:49 153 5 gusting 6 20.6
2019-Jul-21 09:44 140 5 gusting 8 20.0
2019-Jul-21 09:39 197 4 gusting 8 20.0
2019-Jul-21 09:34 199 5 gusting 6 20.0
2019-Jul-21 09:29 199 5 gusting 6 20.0
2019-Jul-21 09:24 179 5 gusting 7 20.0
2019-Jul-21 09:19 189 4 gusting 7 19.4
2019-Jul-21 09:14 187 4 gusting 6 18.9
2019-Jul-21 09:09 148 5 gusting 4 18.3
2019-Jul-21 09:04 148 5 gusting 4 18.3
2019-Jul-21 08:59 148 5 gusting 5 18.3
2019-Jul-21 08:54 174 5 gusting 8 18.3
2019-Jul-21 08:49 156 5 gusting 6 18.3
2019-Jul-21 08:44 172 4 gusting 4 17.8
2019-Jul-21 08:39 172 4 gusting 4 17.8
2019-Jul-21 08:34 172 4 gusting 6 17.2
2019-Jul-21 08:29 153 4 gusting 7 17.2
2019-Jul-21 08:24 152 4 gusting 6 17.2
2019-Jul-21 08:19 153 4 gusting 7 16.7
2019-Jul-21 08:14 136 4 gusting 6 16.7
2019-Jul-21 08:09 132 4 gusting 4 16.1
2019-Jul-21 08:04 132 4 gusting 4 16.1
2019-Jul-21 07:59 132 4 gusting 5 16.1
2019-Jul-21 07:54 136 4 gusting 7 16.1
2019-Jul-21 07:49 139 4 gusting 6 16.1
2019-Jul-21 07:44 126 4 gusting 6 16.1
2019-Jul-21 07:39 129 4 gusting 6 16.1
2019-Jul-21 07:34 130 4 gusting 6 16.1
2019-Jul-21 07:29 130 3 gusting 5 16.1
2019-Jul-21 07:24 132 4 gusting 4 16.1
2019-Jul-21 07:19 132 4 gusting 4 16.1
2019-Jul-21 07:14 146 4 gusting 5 15.6
2019-Jul-21 07:09 120 5 gusting 5 15.6
2019-Jul-21 07:04 120 5 gusting 5 15.6
2019-Jul-21 06:59 120 5 gusting 5 15.6
2019-Jul-21 06:54 116 4 gusting 7 15.6
2019-Jul-21 06:49 149 4 gusting 7 15.6
2019-Jul-21 06:44 150 4 gusting 6 15.6
2019-Jul-21 06:39 134 4 gusting 6 15.6
2019-Jul-21 06:34 135 4 gusting 6 15.6
2019-Jul-21 06:29 120 5 gusting 7 15.6
2019-Jul-21 06:24 134 6 gusting 5 15.6
2019-Jul-21 06:19 134 6 gusting 5 15.0
2019-Jul-21 06:14 134 6 gusting 8 15.6
2019-Jul-21 06:09 133 6 gusting 11 15.6
2019-Jul-21 06:04 125 6 gusting 11 15.6
2019-Jul-21 05:59 130 6 gusting 11 16.1
2019-Jul-21 05:54 122 6 gusting 10 16.1
2019-Jul-21 05:49 128 6 gusting 10 16.1
2019-Jul-21 05:44 124 6 gusting 12 15.6
2019-Jul-21 05:39 127 6 gusting 10 15.6
2019-Jul-21 05:34 130 6 gusting 10 16.1
2019-Jul-21 05:29 128 6 gusting 10 16.1
2019-Jul-21 05:24 134 6 gusting 10 16.1
2019-Jul-21 05:19 143 6 gusting 11 16.1
2019-Jul-21 05:14 133 6 gusting 8 16.1
2019-Jul-21 05:09 126 6 gusting 10 16.1
2019-Jul-21 05:04 130 6 gusting 11 16.1
2019-Jul-21 04:59 130 6 gusting 11 15.6
2019-Jul-21 04:54 120 6 gusting 10 16.1
2019-Jul-21 04:49 123 6 gusting 11 15.6
2019-Jul-21 04:44 123 7 gusting 12 16.1
2019-Jul-21 04:39 128 7 gusting 11 15.6
2019-Jul-21 04:34 133 7 gusting 12 15.6
2019-Jul-21 04:29 123 6 gusting 11 15.6
2019-Jul-21 04:24 116 6 gusting 8 15.6
2019-Jul-21 04:19 117 6 gusting 8 15.0
2019-Jul-21 04:14 124 6 gusting 8 15.6
2019-Jul-21 04:09 120 6 gusting 10 15.0
2019-Jul-21 04:04 114 6 gusting 6 15.0
2019-Jul-21 03:59 114 6 gusting 6 15.0
2019-Jul-21 03:54 114 6 gusting 6 15.0
2019-Jul-21 03:49 115 6 gusting 10 15.0
2019-Jul-21 03:44 126 5 gusting 8 15.0
2019-Jul-21 03:39 113 5 gusting 8 14.4
2019-Jul-21 03:34 111 5 gusting 7 14.4
2019-Jul-21 03:29 107 5 gusting 7 14.4
2019-Jul-21 03:24 113 5 gusting 6 14.4
2019-Jul-21 03:19 106 4 gusting 6 14.4
2019-Jul-21 03:14 106 4 gusting 6 14.4
2019-Jul-21 03:09 091 4 gusting 6 13.9
2019-Jul-21 03:04 098 4 gusting 5 14.4
2019-Jul-21 02:59 096 5 gusting 6 14.4
2019-Jul-21 02:54 100 4 gusting 5 14.4
2019-Jul-21 02:49 103 4 gusting 11 14.4
2019-Jul-21 02:44 086 4 gusting 6 13.9
2019-Jul-21 02:39 117 4 gusting 5 14.4
2019-Jul-21 02:34 105 4 gusting 6 15.0
2019-Jul-21 02:29 094 4 gusting 5 15.0
2019-Jul-21 02:24 100 4 gusting 4 15.0
2019-Jul-21 02:19 100 4 gusting 4 15.0
2019-Jul-21 02:14 100 4 gusting 4 15.0
2019-Jul-21 02:09 107 4 gusting 6 15.0
2019-Jul-21 02:04 106 4 gusting 5 15.0
2019-Jul-21 01:59 112 4 gusting 6 15.0
2019-Jul-21 01:54 119 2 gusting 2 15.0
2019-Jul-21 01:49 119 2 gusting 2 15.0
2019-Jul-21 01:44 119 2 gusting 4 15.0
2019-Jul-21 01:39 142 2 gusting 7 15.0
2019-Jul-21 01:34 142 2 gusting 5 15.6
2019-Jul-21 01:29 145 2 gusting 5 16.7
2019-Jul-21 01:24 139 4 gusting 5 16.7
2019-Jul-21 01:19 139 4 gusting 5 16.7
2019-Jul-21 01:14 139 4 gusting 5 16.7
2019-Jul-21 01:09 135 4 gusting 5 16.7
2019-Jul-21 01:04 111 4 gusting 6 16.7
2019-Jul-21 00:59 112 5 gusting 6 16.7
2019-Jul-21 00:54 119 5 gusting 6 16.7
2019-Jul-21 00:49 096 4 gusting 6 16.1
2019-Jul-21 00:44 093 4 gusting 6 16.7
2019-Jul-21 00:39 106 4 gusting 6 16.7
2019-Jul-21 00:34 109 4 gusting 6 16.7
2019-Jul-21 00:29 108 5 gusting 8 16.7
2019-Jul-21 00:24 104 5 gusting 6 16.7
2019-Jul-21 00:19 106 5 gusting 7 16.7
2019-Jul-21 00:14 121 5 gusting 7 16.7
2019-Jul-21 00:09 112 5 gusting 6 16.1
2019-Jul-21 00:04 108 5 gusting 7 16.1
2019-Jul-20 23:59 113 5 gusting 6 16.7
2019-Jul-20 23:54 107 5 gusting 8 16.7
2019-Jul-20 23:49 109 5 gusting 6 16.1
2019-Jul-20 23:44 111 4 gusting 6 16.1
2019-Jul-20 23:39 116 5 gusting 6 16.1
2019-Jul-20 23:34 116 5 gusting 6 16.7
2019-Jul-20 23:29 110 5 gusting 6 16.7
2019-Jul-20 23:24 094 4 gusting 6 16.1
2019-Jul-20 23:19 117 5 gusting 5 16.7
2019-Jul-20 23:14 117 5 gusting 5 16.1
2019-Jul-20 23:09 117 5 gusting 6 16.7
2019-Jul-20 23:04 117 5 gusting 7 17.2
2019-Jul-20 22:59 126 4 gusting 5 17.2
2019-Jul-20 22:54 126 4 gusting 5 16.7
2019-Jul-20 22:49 126 4 gusting 8 16.7
2019-Jul-20 22:44 117 4 gusting 7 17.2
2019-Jul-20 22:39 104 5 gusting 6 16.7
2019-Jul-20 22:34 112 5 gusting 8 17.8
2019-Jul-20 22:29 114 5 gusting 6 17.8
2019-Jul-20 22:24 113 5 gusting 6 17.8
2019-Jul-20 22:19 110 6 gusting 7 17.8
2019-Jul-20 22:14 115 5 gusting 8 17.8
2019-Jul-20 22:09 114 5 gusting 10 17.2
2019-Jul-20 22:04 119 5 gusting 8 17.2
2019-Jul-20 21:59 117 5 gusting 7 17.2
2019-Jul-20 21:54 112 5 gusting 6 17.2
2019-Jul-20 21:49 107 4 gusting 6 17.8
2019-Jul-20 21:44 120 4 gusting 6 17.8
2019-Jul-20 21:39 119 5 gusting 6 17.2
2019-Jul-20 21:34 114 5 gusting 6 17.8
2019-Jul-20 21:29 108 5 gusting 10 17.2
2019-Jul-20 21:24 102 5 gusting 6 17.8
2019-Jul-20 21:19 097 5 gusting 6 17.8
2019-Jul-20 21:14 110 5 gusting 7 17.8
2019-Jul-20 21:09 111 4 gusting 7 17.8
2019-Jul-20 21:04 110 4 gusting 6 17.8
2019-Jul-20 20:59 109 3 gusting 6 17.8
2019-Jul-20 20:54 115 4 gusting 5 18.3
2019-Jul-20 20:49 115 4 gusting 5 18.3
2019-Jul-20 20:44 115 4 gusting 6 18.3
2019-Jul-20 20:39 119 4 gusting 6 18.3
2019-Jul-20 20:34 122 4 gusting 5 18.3
2019-Jul-20 20:29 122 2 gusting 6 18.3
2019-Jul-20 20:24 119 4 gusting 4 18.3
2019-Jul-20 20:19 119 4 gusting 4 18.3
2019-Jul-20 20:14 119 4 gusting 5 18.9
2019-Jul-20 20:09 113 4 gusting 6 18.9
2019-Jul-20 20:04 129 4 gusting 6 19.4
2019-Jul-20 19:59 131 4 gusting 6 19.4
2019-Jul-20 19:54 110 2 gusting 4 19.4
2019-Jul-20 19:49 111 2 gusting 4 19.4
2019-Jul-20 19:44 111 2 gusting 4 19.4
2019-Jul-20 19:39 118 2 gusting 5 19.4
2019-Jul-20 19:34 111 3 gusting 5 20.0
2019-Jul-20 19:29 133 4 gusting 4 20.0
2019-Jul-20 19:24 112 3 gusting 5 20.6
2019-Jul-20 19:19 139 2 gusting 5 20.0
2019-Jul-20 19:14 144 2 gusting 6 20.6
2019-Jul-20 19:09 136 1 gusting 6 19.4
2019-Jul-20 19:04 132 1 gusting 4 19.4
2019-Jul-20 18:59 123 1 gusting 4 20.0
2019-Jul-20 18:54 112 2 gusting 4 20.6
2019-Jul-20 18:49 131 2 gusting 4 20.6
2019-Jul-20 18:44 133 2 gusting 4 20.6
2019-Jul-20 18:39 138 2 gusting 4 21.1
2019-Jul-20 18:34 145 2 gusting 4 21.1
2019-Jul-20 18:29 140 2 gusting 4 21.7
2019-Jul-20 18:24 145 2 gusting 4 21.7
2019-Jul-20 18:19 145 2 gusting 6 21.7
2019-Jul-20 18:14 136 2 gusting 4 21.7
2019-Jul-20 18:09 161 2 gusting 2 22.2
2019-Jul-20 18:04 161 2 gusting 2 22.2
2019-Jul-20 17:59 161 2 gusting 4 22.2
2019-Jul-20 17:54 156 1 gusting 4 23.3
2019-Jul-20 17:49 164 23.3
2019-Jul-20 17:44 149 0 gusting 6 23.9
2019-Jul-20 17:39 183 1 gusting 1 23.9
2019-Jul-20 17:34 180 1 gusting 4 23.9
2019-Jul-20 17:29 205 1 gusting 4 22.8
2019-Jul-20 17:24 223 2 gusting 4 23.3
2019-Jul-20 17:19 230 2 gusting 4 23.3
2019-Jul-20 17:14 219 2 gusting 2 23.3
2019-Jul-20 17:09 208 4 gusting 2 23.3
2019-Jul-20 17:04 208 4 gusting 2 23.3
2019-Jul-20 16:59 208 4 gusting 5 25.0
2019-Jul-20 16:54 220 3 gusting 6 25.0
2019-Jul-20 16:49 220 2 gusting 6 25.0
2019-Jul-20 16:44 192 4 gusting 4 25.0
2019-Jul-20 16:39 192 4 gusting 4 25.0
2019-Jul-20 16:34 192 4 gusting 6 23.3
2019-Jul-20 16:29 200 4 gusting 4 23.9
2019-Jul-20 16:24 200 4 gusting 4 23.9
2019-Jul-20 16:19 200 4 gusting 4 23.9
2019-Jul-20 16:14 185 4 gusting 5 23.3
2019-Jul-20 16:09 190 5 gusting 6 23.3
2019-Jul-20 16:04 176 5 gusting 7 23.3
2019-Jul-20 15:59 169 5 gusting 8 23.9
2019-Jul-20 15:54 164 5 gusting 8 25.6
2019-Jul-20 15:49 176 5 gusting 7 23.9
2019-Jul-20 15:44 181 5 gusting 8 25.6
2019-Jul-20 15:39 140 6 gusting 8 25.0
2019-Jul-20 15:34 164 6 gusting 8 25.0
2019-Jul-20 15:29 167 6 gusting 7 24.4
2019-Jul-20 15:24 177 6 gusting 10 23.9
2019-Jul-20 15:19 190 6 gusting 10 23.9
2019-Jul-20 15:14 171 6 gusting 6 23.9
2019-Jul-20 15:09 171 6 gusting 6 23.9
2019-Jul-20 15:04 171 6 gusting 6 23.9
2019-Jul-20 14:59 189 6 gusting 11 23.9
2019-Jul-20 14:54 183 6 gusting 11 23.9
2019-Jul-20 14:49 160 6 gusting 11 25.6
2019-Jul-20 14:44 163 6 gusting 6 26.1
2019-Jul-20 14:39 163 6 gusting 6 25.0
2019-Jul-20 14:34 163 6 gusting 6 26.1
2019-Jul-20 14:29 180 6 gusting 6 25.0
2019-Jul-20 14:24 192 6 gusting 8 25.6
2019-Jul-20 14:19 202 6 gusting 12 25.6
2019-Jul-20 14:14 194 6 gusting 12 25.0
2019-Jul-20 14:09 156 6 gusting 11 26.1
2019-Jul-20 14:04 168 6 gusting 6 26.1
2019-Jul-20 13:59 168 6 gusting 6 25.0
2019-Jul-20 13:54 168 6 gusting 10 26.1
2019-Jul-20 13:49 165 5 gusting 10 25.6
2019-Jul-20 13:44 164 6 gusting 4 25.6
2019-Jul-20 13:39 164 6 gusting 4 25.6
2019-Jul-20 13:34 161 6 gusting 8 25.6
2019-Jul-20 13:29 171 6 gusting 12 24.4
2019-Jul-20 13:24 189 4 gusting 5 25.0
2019-Jul-20 13:19 189 4 gusting 5 25.0
2019-Jul-20 13:14 189 4 gusting 6 25.0
2019-Jul-20 13:09 207 3 gusting 6 25.0
2019-Jul-20 13:04 207 5 gusting 6 24.4
2019-Jul-20 12:59 207 5 gusting 6 24.4
2019-Jul-20 12:54 207 5 gusting 8 24.4
2019-Jul-20 12:49 204 5 gusting 7 23.3
2019-Jul-20 12:44 153 6 gusting 6 23.9
2019-Jul-20 12:39 153 6 gusting 6 23.3
2019-Jul-20 12:34 153 6 gusting 7 23.3
2019-Jul-20 12:29 196 4 gusting 7 23.9
2019-Jul-20 12:24 196 4 gusting 7 23.9
2019-Jul-20 12:19 196 4 gusting 8 23.9
2019-Jul-20 12:14 164 4 gusting 11 23.9
2019-Jul-20 12:09 147 5 gusting 6 22.8
2019-Jul-20 12:04 154 5 gusting 8 23.9
2019-Jul-20 11:59 203 4 gusting 7 23.9
2019-Jul-20 11:54 154 4 gusting 8 23.3
2019-Jul-20 11:49 144 3 gusting 6 22.8
2019-Jul-20 11:44 161 4 gusting 4 22.8
2019-Jul-20 11:39 161 4 gusting 4 22.8
2019-Jul-20 11:34 161 4 gusting 5 22.8
2019-Jul-20 11:29 202 4 gusting 6 22.8
2019-Jul-20 11:24 198 4 gusting 6 22.8
2019-Jul-20 11:19 215 4 gusting 7 22.8
2019-Jul-20 11:14 217 3 gusting 6 22.8
2019-Jul-20 11:09 113 2 gusting 6 23.3
2019-Jul-20 11:04 160 4 gusting 4 22.8
2019-Jul-20 10:59 160 4 gusting 4 22.8
2019-Jul-20 10:54 160 4 gusting 5 22.8
2019-Jul-20 10:49 121 22.8
2019-Jul-20 10:44 201 2 gusting 6 21.7
2019-Jul-20 10:39 201 2 gusting 6 21.7
2019-Jul-20 10:34 201 2 gusting 6 21.7
2019-Jul-20 10:29 190 2 gusting 5 21.7
2019-Jul-20 10:24 151 2 gusting 6 21.7
2019-Jul-20 10:19 223 1 gusting 5 21.7
2019-Jul-20 10:14 149 1 gusting 5 21.1
2019-Jul-20 10:09 013 1 gusting 4 21.1
2019-Jul-20 10:04 177 2 gusting 6 20.6
2019-Jul-20 09:59 183 2 gusting 4 20.6
2019-Jul-20 09:54 180 2 gusting 5 20.6
2019-Jul-20 09:49 196 1 gusting 5 20.0
2019-Jul-20 09:44 204 2 gusting 6 20.0
2019-Jul-20 09:39 113 2 gusting 5 20.0
2019-Jul-20 09:34 213 4 gusting 4 20.6
2019-Jul-20 09:29 143 5 gusting 5 21.1
2019-Jul-20 09:24 145 2 20.6
2019-Jul-20 09:19 145 2 20.6
2019-Jul-20 09:14 145 2 gusting 5 21.1
2019-Jul-20 09:09 200 2 gusting 1 20.6
2019-Jul-20 09:04 193 4 gusting 1 19.4
2019-Jul-20 08:59 193 4 gusting 1 20.0
2019-Jul-20 08:54 200 4 gusting 6 20.0
2019-Jul-20 08:49 162 4 gusting 6 20.0
2019-Jul-20 08:44 214 3 gusting 6 20.0
2019-Jul-20 08:39 191 2 gusting 6 19.4
2019-Jul-20 08:34 204 1 gusting 5 19.4
2019-Jul-20 08:29 161 2 gusting 2 18.9
2019-Jul-20 08:24 161 2 gusting 2 18.9
2019-Jul-20 08:19 161 2 gusting 6 18.9
2019-Jul-20 08:14 176 2 gusting 6 18.3
2019-Jul-20 08:09 184 2 gusting 5 18.3
2019-Jul-20 08:04 181 1 gusting 4 18.3
2019-Jul-20 07:59 181 1 gusting 4 18.3
2019-Jul-20 07:54 181 1 gusting 4 18.3
2019-Jul-20 07:49 177 1 gusting 5 17.8
2019-Jul-20 07:44 150 1 gusting 1 17.8
2019-Jul-20 07:39 150 1 gusting 1 17.8
2019-Jul-20 07:34 150 1 gusting 4 17.2
2019-Jul-20 07:29 138 1 gusting 4 17.8
2019-Jul-20 07:24 227 0 gusting 1 17.2
2019-Jul-20 07:19 234 0 17.2
2019-Jul-20 07:14 234 0 17.2
2019-Jul-20 07:09 239 1 17.2
2019-Jul-20 07:04 192 1 16.7
2019-Jul-20 06:59 192 1 17.2
2019-Jul-20 06:54 192 1 gusting 4 16.7
2019-Jul-20 06:49 180 16.7
2019-Jul-20 06:44 180 16.7
2019-Jul-20 06:39 180 16.7
2019-Jul-20 06:34 181 0 gusting 1 16.7
2019-Jul-20 06:29 185 1 gusting 2 16.7
2019-Jul-20 06:24 223 1 gusting 2 16.7
2019-Jul-20 06:19 223 1 gusting 2 17.2
2019-Jul-20 06:14 223 1 gusting 4 17.2
2019-Jul-20 06:09 247 1 gusting 5 16.7
2019-Jul-20 06:04 229 1 gusting 4 16.7
2019-Jul-20 05:59 224 0 gusting 4 16.1
2019-Jul-20 05:54 201 0 gusting 2 16.7
2019-Jul-20 05:49 217 0 gusting 4 16.1
2019-Jul-20 05:44 177 2 gusting 1 16.7
2019-Jul-20 05:39 177 2 gusting 1 16.1
2019-Jul-20 05:34 177 2 gusting 4 16.1
2019-Jul-20 05:29 174 2 gusting 4 15.6
2019-Jul-20 05:24 184 2 gusting 5 15.6
2019-Jul-20 05:19 201 1 gusting 5 15.6
2019-Jul-20 05:14 206 1 gusting 5 15.6
2019-Jul-20 05:09 196 0 gusting 4 15.6
2019-Jul-20 05:04 169 1 gusting 1 15.6
2019-Jul-20 04:59 175 1 gusting 2 15.6
2019-Jul-20 04:54 159 0 gusting 2 15.6
2019-Jul-20 04:49 150 15.6
2019-Jul-20 04:44 150 15.0
2019-Jul-20 04:39 150 15.0
2019-Jul-20 04:34 145 0 gusting 1 15.0
2019-Jul-20 04:29 137 1 gusting 1 15.0
2019-Jul-20 04:24 137 1 gusting 1 15.0
2019-Jul-20 04:19 137 1 gusting 4 15.0
2019-Jul-20 04:14 137 1 gusting 4 14.4
2019-Jul-20 04:09 150 0 gusting 2 14.4
2019-Jul-20 04:04 135 0 gusting 2 15.0
2019-Jul-20 03:59 182 14.4
2019-Jul-20 03:54 182 14.4
2019-Jul-20 03:49 182 14.4
2019-Jul-20 03:44 167 14.4
2019-Jul-20 03:39 135 14.4
2019-Jul-20 03:34 135 14.4
2019-Jul-20 03:29 134 13.9
2019-Jul-20 03:24 127 0 13.9
2019-Jul-20 03:19 127 1 13.3
2019-Jul-20 03:14 124 0 gusting 1 13.3
2019-Jul-20 03:04 161 13.3